{"data":{"norad_id":57827,"intl_designator":"2023-138V","name":"STARLINK-30402","alt_names":[],"object_type":"PAYLOAD","status":"ACTIVE","operator":null,"country":"US","launch_date":"2023-09-09","launch_site_code":"AFETR","launch_vehicle":null,"mission":null,"orbit_class":"UNKNOWN","rcs_meters":null,"size_class":null,"mass_kg":null,"dimensions":null,"purposes":["comms"],"wikipedia_slug":null,"has_3d_model":false,"image_url":null,"decayed_at":null,"tle_current":{"epoch":"2026-09-20T05:50:35.749248Z","epoch_age_seconds":156814,"freshness":"FRESH","line1":"1 57827U 23138V   26263.24346932 -.00000585  00000+0 -11752-4 0  9997","line2":"2 57827  43.0035 215.3699 0001289 270.5009  89.5695 15.27576271168486","mean_motion":15.27576271,"eccentricity":0.0001289,"inclination_deg":43.0035,"raan_deg":215.3699,"arg_perigee_deg":270.5009,"mean_anomaly_deg":89.5695,"bstar":-1.1752e-5,"rev_number":16848,"period_min":94.266978830283,"perigee_km":482.17585370279,"apogee_km":483.94467035694,"semimajor_km":6861.1972620299,"source":"CELESTRAK","updated_at":"2026-09-21T09:00:33.710664Z"}}}